Location: Dos Palmas
(32.4468°N, 116.8732°W)
Time: 19:29:27
(UTC+00:00)

BlueWalker 3 - Visible Passes

Search period start: 08 December 2022 00:00
Search period end: 18 December 2022 00:00
Orbit: 501 x 518 km, 53.2° (Epoch: 08 December)

Date Brightness Start Highest point End Pass type
(mag) Time Alt. Az. Time Alt. Az. Time Alt. Az.
10 Dec 4.0 02:42:39 10° NW 02:43:58 20° NNW 02:43:58 20° NNW visible
11 Dec 2.4 02:24:12 10° NW 02:27:15 47° N 02:27:15 47° N visible
12 Dec 1.8 02:05:46 10° NW 02:09:38 65° NE 02:10:56 38° ESE visible
13 Dec 1.8 01:47:19 10° NW 01:51:12 71° NE 01:55:02 10° SE visible
14 Dec 1.8 01:28:52 10° NW 01:32:46 78° NE 01:36:37 10° SE visible
15 Dec 1.9 01:10:25 10° NW 01:14:19 84° NE 01:18:11 10° SE visible
